Home > Weather > Nelson > Past weeks

Flag for Canada Past Weather in Nelson, British Columbia, Canada — Yesterday and Last 2 Weeks

Now
56 °F

Cool.


Feels Like: 56 °F
Forecast: 61 / 94 °F
Wind: No wind

Location: Nelson

Current Time: Jul 25, 2016 at 5:02:16 AM

Latest Report: Jul 25, 2016 at 4:00 AM


Visibility: N/A

Pressure: 30.02 "Hg (28.08 "Hg at 560m altitude)

Humidity: 92%

Dew Point: 54 °F

Location of NelsonLocation

Past Weather in Nelson — Graph

°F

Nelson Temperature Yesterday

Maximum temperature yesterday: 87 °F (at 4:00 PM)
Minimum temperature yesterday: 53 °F (at 5:00 AM)
Average temperature yesterday: 70 °F

High & Low Weather Summary for the Past Weeks

 TemperatureHumidityPressure
High90 °F (Jul 21, 4:00 PM)96% (Jul 14, 6:00 AM)30.24 "Hg (Jul 14, 6:00 AM)
Low49 °F (Jul 14, 4:00 AM)17% (Jul 21, 4:00 PM)29.74 "Hg (Jul 10, 4:00 PM)
Average64 °F67%30.00 "Hg
* Reported Jul 10 3:00 AM — Jul 25 3:00 AM, Nelson, Weather by CustomWeather, © 2016

Note: Actual official high and low records may vary slightly from our data, if they occured in-between our weather recording intervals... More about our weather records

Advertising

Nelson Weather History for the Previous 24 Hours

Scroll right to see more
 ConditionsComfort  
Time TempWeatherWind HumidityBarometerVisibility
3:00 AM
Mon, Jul 25
59 °FCool.1 mph80%30.01 "HgN/A
2:00 AM60 °FCool.2 mph86%30.00 "HgN/A
1:00 AM62 °FCool.No wind81%29.99 "HgN/A
12:00 AM63 °FMild.3 mph78%29.98 "HgN/A
11:00 PM
Sun, Jul 24
64 °FMild.1 mph75%29.97 "HgN/A
10:00 PM67 °FMild.2 mph71%29.97 "HgN/A
9:00 PM67 °FMild.1 mph72%29.95 "HgN/A
8:00 PM74 °FMild.3 mph53%29.93 "HgN/A
7:00 PM85 °FPleasantly warm.5 mph29%29.91 "HgN/A
6:00 PM85 °FPleasantly warm.5 mph34%29.92 "HgN/A
5:00 PM86 °FPleasantly warm.9 mph30%29.94 "HgN/A
4:00 PM87 °FPleasantly warm.7 mph29%29.96 "HgN/A
3:00 PM86 °FPleasantly warm.8 mph29%29.97 "HgN/A
2:00 PM85 °FPleasantly warm.9 mph31%29.99 "HgN/A
1:00 PM83 °FPleasantly warm.6 mph32%30.01 "HgN/A
12:00 PM79 °FPleasantly warm.5 mph38%30.04 "HgN/A
11:00 AM75 °FMild.3 mph52%30.06 "HgN/A
10:00 AM71 °FMild.3 mph59%30.09 "HgN/A
9:00 AM67 °FMild.5 mph60%30.12 "HgN/A
8:00 AM62 °FCool.5 mph75%30.14 "HgN/A
7:00 AM57 °FCool.5 mph87%30.15 "HgN/A
6:00 AM54 °FCool.3 mph93%30.15 "HgN/A
5:00 AM53 °FCool.No wind91%30.14 "HgN/A
Weather by CustomWeather, © 2016

See weather overviewHow to use our weather pages